Weather History for Austin, MN

Change the Weather History Date:

Saturday, January 18, 2014

  Actual Average Record
Temperature  
Mean Temperature 10 °F -  
Max Temperature 17 °F 20 °F 44 °F (2013)
Min Temperature 3 °F 7 °F -9 °F (1997)
Degree Days  
Heating Degree Days 55    
Moisture  
Dew Point 9 °F    
Average Humidity 85    
Maximum Humidity 93    
Minimum Humidity 73    
Precipitation  
Precipitation 0.02 in - - ()
Sea Level Pressure  
Sea Level Pressure 29.73 in    
Wind  
Wind Speed 10 mph (SE)    
Max Wind Speed 18 mph    
Max Gust Speed 24 mph    
Visibility 8 miles    
Events Snow    
Averages and records for this station are not official NWS values.
T = Trace of Precipitation, MM = Missing Value Source: NWS Daily Summary

Daily Weather History Graph

Daily Weather History Graph

Search for Another Location

Airport:

Trip Planner

Search our weather history database for the weather conditions in past years. The results will help you decide how hot, cold, wet, or windy it might be!

Date:

Astronomy

Jan. 18, 2014 Rise Set
Actual Time 7:40 AM CST 5:04 PM CST
Civil Twilight 7:08 AM CST 5:35 PM CST
Nautical Twilight 6:33 AM CST 6:11 PM CST
Astronomical Twilight 5:59 AM CST 6:45 PM CST
Moon 7:53 PM CST (1/18) 8:34 AM CST (1/18)
Length of Visible Light 10h 27m
Length of Day
9h 23m
Waning Gibbous, 94% of the Moon is Illuminated
Jan 18
Waning Gibbous
Jan 23
Last Quarter
Jan 30
New
Feb 6
First Quarter
Feb 14
Full

Hourly Weather History & Observations

Time (CST) Temp. Windchill Dew Point Humidity Pressure Visibility Wind Dir Wind Speed Gust Speed Precip Events Conditions
12:15 AM 3.2 °F -7.8 °F 1.4 °F 92% 29.77 in 10.0 mi SE 5.8 mph - N/A   Mostly Cloudy
12:34 AM 6.8 °F -4.8 °F 3.2 °F 85% 29.76 in 10.0 mi SSE 6.9 mph - N/A   Overcast
12:54 AM 6.8 °F -2.0 °F 3.2 °F 85% 29.75 in 10.0 mi SSE 4.6 mph - N/A   Overcast
1:15 AM 8.6 °F -1.3 °F 5.0 °F 85% 29.73 in 10.0 mi SSE 5.8 mph - N/A   Overcast
1:34 AM 8.6 °F -2.6 °F 5.0 °F 85% 29.72 in 10.0 mi SSE 6.9 mph - N/A   Overcast
1:54 AM 8.6 °F -2.6 °F 5.0 °F 85% 29.71 in 10.0 mi SSE 6.9 mph - N/A   Overcast
2:15 AM 10.4 °F -0.4 °F 5.0 °F 79% 29.70 in 10.0 mi SSE 6.9 mph - N/A   Overcast
2:34 AM 10.4 °F -0.4 °F 5.0 °F 79% 29.68 in 7.0 mi SSE 6.9 mph - N/A Snow Light Snow
2:54 AM 10.4 °F -2.4 °F 6.8 °F 85% 29.67 in 4.0 mi SSE 9.2 mph - N/A Snow Light Snow
3:15 AM 10.4 °F -3.3 °F 8.6 °F 92% 29.65 in 1.2 mi SSE 10.4 mph - N/A Snow Light Snow
3:34 AM 10.4 °F -5.4 °F 8.6 °F 92% 29.63 in 1.0 mi SE 13.8 mph 18.4 mph N/A Snow Snow
3:54 AM 12.2 °F -2.5 °F 8.6 °F 85% 29.61 in 0.8 mi SSE 12.7 mph - N/A Snow Snow
4:14 AM 10.4 °F -6.0 °F 8.6 °F 92% 29.58 in 1.2 mi SE 15.0 mph 19.6 mph N/A Snow Light Snow
4:34 AM 12.2 °F -3.7 °F 10.4 °F 92% 29.54 in 1.8 mi SE 15.0 mph 24.2 mph N/A Snow Light Snow
4:55 AM 12.2 °F -3.1 °F 10.4 °F 92% 29.53 in 1.0 mi SSE 13.8 mph 20.7 mph N/A Snow Light Snow
5:14 AM 12.2 °F -1.8 °F 10.4 °F 92% 29.53 in 1.0 mi SSE 11.5 mph 18.4 mph N/A Snow Snow
5:34 AM 12.2 °F -3.1 °F 10.4 °F 92% 29.52 in 0.8 mi SSE 13.8 mph 20.7 mph N/A Snow Snow
5:55 AM 12.2 °F -1.0 °F 10.4 °F 92% 29.51 in 2.0 mi SSE 10.4 mph 18.4 mph N/A Snow Light Snow
6:14 AM 14.0 °F 1.2 °F 10.4 °F 86% 29.50 in 2.5 mi SSE 10.4 mph 23.0 mph N/A Snow Light Snow
6:34 AM 14.0 °F -0.2 °F 12.2 °F 93% 29.50 in 0.8 mi SSE 12.7 mph 20.7 mph N/A Snow Snow
6:55 AM 14.0 °F -0.2 °F 12.2 °F 93% 29.49 in 0.5 mi SSE 12.7 mph 16.1 mph N/A Snow Heavy Snow
7:14 AM 14.0 °F 1.2 °F 12.2 °F 93% 29.49 in 1.0 mi SSE 10.4 mph 16.1 mph N/A Snow Snow
7:34 AM 14.0 °F 1.2 °F 12.2 °F 93% 29.49 in 1.5 mi SE 10.4 mph - N/A Snow Light Snow
7:55 AM 15.8 °F 2.1 °F 12.2 °F 86% 29.50 in 1.5 mi SE 12.7 mph 18.4 mph N/A Snow Light Snow
8:14 AM 15.8 °F 0.3 °F 12.2 °F 86% 29.51 in 1.8 mi SE 16.1 mph - N/A Snow Light Snow
8:34 AM 15.8 °F 1.4 °F 12.2 °F 86% 29.51 in 2.5 mi ESE 13.8 mph - N/A Snow Light Snow
8:55 AM 14.0 °F -1.4 °F 12.2 °F 93% 29.53 in 10.0 mi ESE 15.0 mph - 0.01 in   Scattered Clouds
9:11 AM 15.8 °F 0.9 °F 12.2 °F 86% 29.53 in 10.0 mi ESE 15.0 mph - N/A   Scattered Clouds
9:34 AM 14.0 °F -1.4 °F 10.4 °F 86% 29.55 in 10.0 mi ESE 15.0 mph - N/A   Scattered Clouds
9:55 AM 15.8 °F 0.3 °F 10.4 °F 79% 29.57 in 10.0 mi ESE 16.1 mph - N/A   Scattered Clouds
10:15 AM 15.8 °F 0.3 °F 10.4 °F 79% 29.59 in 10.0 mi East 16.1 mph - N/A   Scattered Clouds
10:30 AM 15.8 °F 0.3 °F 10.4 °F 79% 29.60 in 10.0 mi East 16.1 mph - N/A   Unknown
10:54 AM 15.8 °F 0.9 °F 12.2 °F 86% 29.62 in 10.0 mi East 15.0 mph - N/A   Overcast
11:14 AM 15.8 °F -0.2 °F 10.4 °F 79% 29.64 in 10.0 mi ENE 17.3 mph - N/A   Mostly Cloudy
11:35 AM 15.8 °F 2.1 °F 10.4 °F 79% 29.66 in 10.0 mi ENE 12.7 mph 20.7 mph N/A   Scattered Clouds
11:55 AM 15.8 °F 2.1 °F 10.4 °F 79% 29.68 in 10.0 mi NE 12.7 mph 16.1 mph N/A   Clear
12:14 PM 15.8 °F 0.9 °F 8.6 °F 73% 29.69 in 10.0 mi NE 15.0 mph - N/A   Scattered Clouds
12:35 PM 15.8 °F -0.6 °F 8.6 °F 73% 29.70 in 10.0 mi ENE 18.4 mph 24.2 mph N/A   Scattered Clouds
12:54 PM 15.8 °F 3.4 °F 10.4 °F 79% 29.72 in 10.0 mi NE 10.4 mph 21.9 mph N/A   Clear
1:14 PM 17.6 °F 5.7 °F 10.4 °F 73% 29.74 in 10.0 mi NE 10.4 mph 16.1 mph N/A   Clear
1:35 PM 17.6 °F 5.7 °F 10.4 °F 73% 29.76 in 10.0 mi NNE 10.4 mph 18.4 mph N/A   Clear
1:54 PM 17.6 °F 7.3 °F 10.4 °F 73% 29.77 in 10.0 mi NNE 8.1 mph 18.4 mph N/A   Clear
2:14 PM 17.6 °F 5.0 °F 10.4 °F 73% 29.80 in 10.0 mi North 11.5 mph 17.3 mph 0.01 in   Clear
2:35 PM 17.6 °F 7.3 °F 10.4 °F 73% 29.81 in 7.0 mi North 8.1 mph - 0.01 in   Scattered Clouds
2:54 PM 17.6 °F 5.7 °F 10.4 °F 73% 29.82 in 10.0 mi North 10.4 mph - 0.01 in   Scattered Clouds
3:14 PM 17.6 °F 5.0 °F 10.4 °F 73% 29.83 in 10.0 mi North 11.5 mph - N/A   Clear
3:35 PM 15.8 °F 2.7 °F 10.4 °F 79% 29.85 in 10.0 mi North 11.5 mph 16.1 mph N/A   Clear
3:54 PM 15.8 °F 4.2 °F 10.4 °F 79% 29.86 in 10.0 mi North 9.2 mph - N/A   Clear
4:14 PM 15.8 °F 5.1 °F 10.4 °F 79% 29.86 in 10.0 mi North 8.1 mph - N/A   Clear
4:35 PM 14.0 °F 5.1 °F 8.6 °F 79% 29.88 in 10.0 mi North 5.8 mph - N/A   Clear
4:54 PM 12.2 °F 0.7 °F 8.6 °F 85% 29.90 in 10.0 mi NW 8.1 mph - N/A   Clear
5:14 PM 12.2 °F -0.2 °F 8.6 °F 85% 29.91 in 10.0 mi NW 9.2 mph - N/A   Clear
5:35 PM 10.4 °F -1.5 °F 8.6 °F 92% 29.93 in 10.0 mi WNW 8.1 mph - N/A   Clear
5:54 PM 10.4 °F -1.5 °F 8.6 °F 92% 29.94 in 10.0 mi NW 8.1 mph - N/A   Clear
6:14 PM 12.2 °F 1.7 °F 8.6 °F 85% 29.94 in 10.0 mi WNW 6.9 mph - N/A   Clear
6:35 PM 12.2 °F 0.7 °F 8.6 °F 85% 29.94 in 10.0 mi WNW 8.1 mph - N/A   Clear
6:54 PM 10.4 °F -1.5 °F 8.6 °F 92% 29.93 in 10.0 mi WNW 8.1 mph - N/A   Clear
7:14 PM 12.2 °F 0.7 °F 8.6 °F 85% 29.92 in 10.0 mi WNW 8.1 mph - N/A   Clear
7:35 PM 10.4 °F -2.4 °F 8.6 °F 92% 29.93 in 10.0 mi WNW 9.2 mph - N/A   Clear
7:54 PM 10.4 °F 0.8 °F 6.8 °F 85% 29.91 in 10.0 mi NW 5.8 mph - N/A   Clear
8:14 PM 10.4 °F -1.5 °F 8.6 °F 92% 29.92 in 10.0 mi WNW 8.1 mph - N/A   Clear
8:35 PM 10.4 °F -0.4 °F 8.6 °F 92% 29.90 in 10.0 mi West 6.9 mph - N/A   Clear
8:54 PM 10.4 °F 0.8 °F 8.6 °F 92% 29.91 in 10.0 mi West 5.8 mph - N/A   Clear
9:14 PM 10.4 °F 0.8 °F 8.6 °F 92% 29.90 in 10.0 mi WSW 5.8 mph - N/A   Mostly Cloudy
9:34 PM 10.4 °F 2.2 °F 8.6 °F 92% 29.89 in 10.0 mi West 4.6 mph - N/A   Mostly Cloudy
9:54 PM 10.4 °F 2.2 °F 8.6 °F 92% 29.86 in 10.0 mi SW 4.6 mph - N/A   Mostly Cloudy
10:14 PM 12.2 °F 0.7 °F 10.4 °F 92% 29.87 in 10.0 mi West 8.1 mph - N/A   Scattered Clouds
10:34 PM 12.2 °F 0.7 °F 10.4 °F 92% 29.85 in 10.0 mi WSW 8.1 mph - N/A   Clear
10:54 PM 12.2 °F 0.7 °F 10.4 °F 92% 29.84 in 10.0 mi SW 8.1 mph - N/A   Clear
11:15 PM 12.2 °F 1.7 °F 10.4 °F 92% 29.83 in 10.0 mi WSW 6.9 mph - N/A   Clear
11:34 PM 12.2 °F -1.0 °F 10.4 °F 92% 29.81 in 10.0 mi SW 10.4 mph - N/A   Clear
11:54 PM 12.2 °F -1.8 °F 10.4 °F 92% 29.80 in 10.0 mi WSW 11.5 mph - N/A   Clear